Hourly Data Report for July 27, 2021

NORTH CAPE
PRINCE EDWARD ISLAND
Current Station Operator: ECCC - MSC

47°03'29.000" N
63°59'55.000" W
7.60 m
8300516
71987
WNE

Download Data

Hourly Data (July 2021)
Hourly Data Report for July 27, 2021
TIME
LST
Temp Definition
°C
Dew Point Definition
°C
Rel Hum Definition
%
Precip. Amount Definition
mm

Wind Dir Definition
10's deg

Wind Spd Definition
km/h
Visibility Definition
km
Stn Press Definition
kPa
Hmdx Definition


Wind Chill Definition


Weather Definition


00:00 19.3 17.9 92 0.0 21 21   100.70     LegendNANA
01:00 18.9 17.5 92 0.0 22 17   100.69     LegendNANA
02:00 18.7 17.4 92 0.0 22 19   100.67     LegendNANA
03:00 18.3 17.5 95 0.0 20 13   100.67     LegendNANA
04:00 18.1 17.5 96 0.0 24 16   100.67     LegendNANA
05:00 18.2 17.6 96 0.0 21 15   100.71     LegendNANA
06:00 17.9 17.7 98 0.0 22 21   100.70     LegendNANA
07:00 18.1 17.6 97 0.0 22 12   100.73     LegendNANA
08:00 18.3 17.4 95 0.0 22 21   100.74     LegendNANA
09:00 18.8 17.8 94 0.0 23 19   100.76     LegendNANA
10:00 19.2 17.8 92 0.0 23 20   100.75     LegendNANA
11:00 20.1 18.1 88 0.0 23 20   100.75 26   LegendNANA
12:00 19.9 18.0 89 0.0 24 23   100.70     LegendNANA
13:00 20.3 18.3 89 0.0 24 20   100.72 27   LegendNANA
14:00 20.8 18.5 87 0.0 26 14   100.72 27   LegendNANA
15:00 20.6 19.0 91 0.0 28 7   100.76 27   LegendNANA
16:00 20.3 18.3 88 0.0 29 1   100.77 27   LegendNANA
17:00 21.0 18.4 85 0.0 35 3   100.77 27   LegendNANA
18:00 20.9 18.4 86 0.0 14 8   100.79 27   LegendNANA
19:00 19.4 18.1 92 0.0 11 4   100.84     LegendNANA
20:00 19.1 18.2 94 0.0 7 4   100.86     LegendNANA
21:00 19.1 18.3 95 0.0 2 4   100.94     LegendNANA
22:00 19.4 14.5 74 0.7 32 12   100.97     LegendNANA
23:00 19.1 14.6 75 0.0 30 19   100.94     LegendNANA

Notes on Data Quality.

Legend

  • E = Estimated
  • M = Missing
  • NA = Not Available*
  • [empty] = Indicates an unobserved value
Date modified: